User: anonymous   Login
Location: Beccas
(43.4309°N, 0.1528°E)
Time: 16:55:39
(UTC+00:00)
Language:

Cosmos 405 Rocket - Orbit

View from above orbital plane
View from above orbital plane
View from above satellite
View from above satellite

Ground track
Ground track

The orbit data is extracted from the following two-line orbital elements,

1 05118U 71028B   22024.92177456  .00001883  00000-0  95321-4 0  9998
2 05118  81.2550  22.4422 0046890  40.8620 319.6108 15.15515902758609
Epoch (UTC): 24 January 2022 22:07:21
Eccentricity: 0.0046890
inclination: 81.2550°
perigee height: 487 km
apogee height: 552 km
right ascension of ascending node: 22.4422°
argument of perigee: 40.8620°
revolutions per day: 15.15515902
mean anomaly at epoch: 319.6108°
orbit number at epoch: 75860

The dashed part of the orbit path shows where the satellite is in the earth's shadow,  

DLR